Location: Newark
(41.6500°N, 71.4833°W)
Time: 14:37:38
(UTC+00:00)

Tiros 1 - Pass Details

Date: 25 January 2020
Orbit: 630 x 664 km, 48.4° (Epoch: 28 February)

Event Time Altitude Azimuth Distance (km) Brightness Sun altitude
Rises 23:53:24 0° 295° (WNW) 2,981 11.5 -22.8°
Reaches altitude 10° 23:55:49 10° 289° (WNW) 2,071 10.6 -23.2°
Maximum altitude 00:00:20 43° 218° (SW) 921 8.1 -24.0°
Enters shadow 00:02:07 30° 169° (S) 1,176 8.4 -24.4°
